Weather reports worldwide

Advertisment
Görlitz, Germany (10499): temperature & dewpoint: 01.08.2020 02:00:00 - 07.08.2020 02:00:00 (CEST)Görlitz, Germany (10499): temperature 5cm & temperature -5cm: 01.08.2020 02:00:00 - 07.08.2020 02:00:00 (CEST)Görlitz, Germany (10499): temperature -20cm & temperature -100cm: 01.08.2020 02:00:00 - 07.08.2020 02:00:00 (CEST)Görlitz, Germany (10499): wind speed & gusts: 01.08.2020 02:00:00 - 07.08.2020 02:00:00 (CEST)Görlitz, Germany (10499): wind direction: 01.08.2020 02:00:00 - 07.08.2020 02:00:00 (CEST)Görlitz, Germany (10499): reduced air pressure: 01.08.2020 02:00:00 - 07.08.2020 02:00:00 (CEST)Görlitz, Germany (10499): visibility: 01.08.2020 02:00:00 - 07.08.2020 02:00:00 (CEST)Görlitz, Germany (10499): sunshine duration: 01.08.2020 02:00:00 - 07.08.2020 02:00:00 (CEST)Görlitz, Germany (10499): precipitation: 01.08.2020 02:00:00 - 07.08.2020 02:00:00 (CEST)
Date & Time tt [°C] td [°C] tt 5cm [°C] tt -5cm [°C] tt -20cm [°C] tt -100cm [°C] ff [km/h] ff [kn] fx [km/h] fx [kn] dd ppp [hPa] vv [km] sd [min] rr [mm]
07.08.2020 02:00:00 17,0 15,2 15,3 19,9 21,4 18,7 0 0 5 3 N 1022,6 26 0 0,0
07.08.2020 01:00:00 19,2 15,4 16,7 20,4 21,7 18,7 4 2 5 3 ESE 1022,4 33 0 0,0
07.08.2020 00:00:00 18,1 15,3 16,5 21,0 22,0 18,7 3 1 8 4 SSE 1022,7 33 0 0,0
06.08.2020 23:00:00 20,8 15,6 19,1 21,7 22,2 18,7 7 4 9 5 E 1022,1 42 0 0,0
06.08.2020 22:00:00 21,8 15,6 20,1 22,5 22,4 18,7 7 4 13 7 E 1022,0 47 0 0,0
06.08.2020 21:00:00 22,7 15,6 21,2 23,6 22,6 18,7 8 4 19 10 E 1021,5 43 15 0,0
06.08.2020 20:00:00 24,1 15,1 23,7 24,9 22,5 18,7 16 8 28 15 E 1021,1 50 60 0,0
06.08.2020 19:00:00 25,1 15,1 25,8 25,9 22,3 18,7 15 8 30 16 E 1020,7 53 59 0,0
06.08.2020 18:00:00 25,3 14,9 26,6 26,6 22,0 18,7 20 11 32 17 E 1020,6 45 56 0,0
06.08.2020 17:00:00 25,9 15,2 28,5 26,7 21,6 18,7 14 8 27 15 ENE 1020,5 44 51 0,0
06.08.2020 16:00:00 25,6 15,3 29,5 26,3 21,1 18,7 14 8 28 15 ENE 1020,7 53 51 0,0
06.08.2020 15:00:00 25,8 15,0 30,0 25,5 20,6 18,7 14 8 31 17 ENE 1020,9 30 60 0,0
06.08.2020 14:00:00 25,3 13,9 29,0 24,5 20,1 18,8 16 9 35 19 ENE 1021,3 53 60 0,0
06.08.2020 13:00:00 24,6 11,6 28,2 23,6 19,7 18,8 17 9 28 15 ENE 1021,8 57 60 0,0
06.08.2020 12:00:00 24,0 10,7 27,3 22,6 19,2 18,8 14 7 30 16 E 1021,9 68 60 0,0
06.08.2020 11:00:00 23,2 11,1 26,7 21,4 18,8 18,8 13 7 24 13 E 1022,0 66 60 0,0
06.08.2020 10:00:00 21,0 11,4 25,6 19,6 18,6 18,8 7 4 14 7 NNE 1022,3 75 60 0,0
06.08.2020 09:00:00 18,9 11,6 21,5 18,0 18,5 18,8 5 3 9 5 ENE 1022,3 58 60 0,0
06.08.2020 08:00:00 16,4 12,7 18,5 16,6 18,7 18,8 3 2 5 3 ESE 1022,3 52 60 0,0
06.08.2020 07:00:00 14,1 12,0 13,6 15,9 18,9 18,8 3 2 5 3 SE 1022,1 43 56 0,0
06.08.2020 06:00:00 11,7 10,8 10,2 16,1 19,2 18,8 2 1 4 2 SSW 1021,9 35 0 0,0
06.08.2020 05:00:00 11,8 11,0 10,3 16,6 19,5 18,8 3 2 8 4 SSE 1021,8 31 0 0,0
06.08.2020 04:00:00 12,7 10,8 10,4 17,0 19,8 18,8 6 3 8 4 ESE 1021,6 55 0 0,0
06.08.2020 03:00:00 13,3 11,0 11,2 17,5 20,2 18,8 4 2 7 4 ESE 1021,4 58 0 0,0
06.08.2020 02:00:00 13,2 11,1 11,4 18,0 20,5 18,8 5 3 6 4 E 1021,4 48 0 0,0
06.08.2020 01:00:00 14,9 11,0 11,8 18,6 20,9 18,8 5 3 7 4 SE 1021,2 58 0 0,0
06.08.2020 00:00:00 16,7 10,7 12,6 19,2 21,2 18,8 5 3 10 5 ESE 1020,9 60 0 0,0
05.08.2020 23:00:00 17,8 10,8 14,0 20,0 21,6 18,9 6 3 13 7 ESE 1020,8 75 0 0,0
05.08.2020 22:00:00 19,0 10,5 16,7 21,0 21,9 18,9 7 4 13 7 ESE 1020,4 57 0 0,0
05.08.2020 21:00:00 20,4 10,6 18,2 22,3 22,1 18,9 9 5 14 8 E 1019,7 66 24 0,0
05.08.2020 20:00:00 22,0 10,3 21,4 23,8 22,1 18,9 10 5 14 8 E 1019,1 75 60 0,0
05.08.2020 19:00:00 23,4 9,8 24,9 24,9 22,0 18,9 6 3 21 12 E 1018,6 75 55 0,0
05.08.2020 18:00:00 23,7 9,5 26,0 25,9 21,7 19,0 6 3 19 10 E 1018,7 51 60 0,0
05.08.2020 17:00:00 24,2 9,9 27,6 26,5 21,2 19,0 8 4 22 12 NE 1018,8 69 59 0,0
05.08.2020 16:00:00 24,3 8,6 28,5 26,2 20,7 19,0 7 4 19 10 NE 1018,9 75 60 0,0
05.08.2020 15:00:00 23,0 7,9 30,0 25,7 20,1 19,0 10 6 25 13 SSE 1019,3 75 60 0,0
05.08.2020 14:00:00 23,4 10,0 28,8 24,1 19,5 19,0 9 5 18 10 SE 1019,4 48 49 0,0
05.08.2020 13:00:00 21,0 8,8 22,5 23,6 18,9 19,1 5 3 19 10 ESE 1020,1 72 40 0,0
05.08.2020 12:00:00 21,5 9,0 26,4 22,1 18,4 19,1 9 5 18 10 E 1019,8 71 50 0,0
05.08.2020 11:00:00 21,2 9,5 25,6 20,7 17,9 19,1 4 2 13 7 ENE 1019,9 69 60 0,0
05.08.2020 10:00:00 19,7 10,8 23,1 18,8 17,6 19,1 7 4 11 6 SE 1019,9 75 60 0,0
05.08.2020 09:00:00 17,4 12,5 20,7 16,9 17,6 19,1 4 2 11 6 S 1020,1 56 60 0,0
05.08.2020 08:00:00 14,6 12,5 15,4 15,5 17,7 19,1 6 4 9 5 SE 1020,2 37 60 0,0
05.08.2020 07:00:00 12,2 11,7 12,7 15,0 17,9 19,2 7 4 9 5 SE 1020,2 10 56 0,0
05.08.2020 06:00:00 11,1 11,1 10,2 15,2 18,1 19,2 5 3 6 4 WSW 1019,9 5 0 0,0
05.08.2020 05:00:00 10,8 10,7 9,7 15,6 18,3 19,2 3 1 7 4 SW 1019,6 1,2 0 0,0
05.08.2020 04:00:00 12,3 12,2 11,3 16,0 18,5 19,2 6 3 9 5 SSE 1019,2 1,6 0 0,0
05.08.2020 03:00:00 13,0 12,8 12,1 16,5 18,7 19,2 8 4 11 6 SE 1018,6 15 0 0,0
05.08.2020 02:00:00 13,9 13,3 13,0 17,1 18,9 19,2 6 4 8 5 SE 1018,3 28 0 0,0
05.08.2020 01:00:00 14,6 12,8 13,7 17,4 19,0 19,3 4 2 5 3 SSW 1018,1 58 0 0,0
05.08.2020 00:00:00 14,9 13,2 14,5 17,7 19,1 19,3 4 2 7 4 SSW 1018,0 44 0 0,0
04.08.2020 23:00:00 15,4 12,7 15,2 17,9 19,2 19,3 6 3 9 5 WSW 1017,7 59 0 0,0
04.08.2020 22:00:00 15,7 12,7 15,2 18,2 19,3 19,3 5 3 9 5 SW 1017,3 62 0 0,0
04.08.2020 21:00:00 15,8 13,7 15,5 18,6 19,4 19,3 6 3 7 4 S 1016,5 59 0 0,0
04.08.2020 20:00:00 16,9 11,9 16,6 19,0 19,4 19,4 4 2 9 5 WNW 1016,0 74 0 0,0
04.08.2020 19:00:00 17,3 12,2 17,7 19,2 19,4 19,4 5 3 16 8 WNW 1015,4 75 0 0,0
04.08.2020 18:00:00 17,3 12,7 17,6 19,3 19,3 19,4 8 4 12 7 W 1015,2 61 0 0,0
04.08.2020 17:00:00 17,2 11,9 17,6 19,5 19,2 19,4 5 3 15 8 W 1014,8 57 0 0,0
04.08.2020 16:00:00 17,8 11,5 19,6 19,3 19,1 19,4 6 4 18 10 NNW 1014,3 48 0 0,0
04.08.2020 15:00:00 17,0 11,0 18,2 19,2 19,0 19,4 10 6 21 11 NNW 1013,9 75 0 0,0
04.08.2020 14:00:00 16,8 12,2 18,8 19,0 18,9 19,5 9 5 24 13 NNW 1013,4 63 0 0,0
04.08.2020 13:00:00 16,7 12,0 18,8 18,6 18,9 19,5 11 6 26 14 NNW 1013,0 75 0 0,0
04.08.2020 12:00:00 15,6 11,9 17,5 18,1 18,8 19,5 11 6 24 13 NNW 1012,7 70 0 0,0
04.08.2020 11:00:00 15,0 12,8 16,0 17,8 18,8 19,5 18 10 30 16 N 1012,1 59 0 0,0
04.08.2020 10:00:00 14,2 12,3 16,2 17,0 18,9 19,5 14 7 21 12 NNW 1011,8 52 0 0,0
04.08.2020 09:00:00 13,1 11,5 13,3 16,7 19,1 19,5 14 8 23 12 NNW 1011,8 48 0 0,1
04.08.2020 08:00:00 12,7 11,0 12,7 16,7 19,2 19,5 15 8 22 12 NNW 1011,5 41 0 0,0
04.08.2020 07:00:00 12,9 11,3 12,9 17,0 19,4 19,5 13 7 18 10 NNW 1011,1 44 0 0,0
04.08.2020 06:00:00 13,4 11,9 13,3 17,3 19,6 19,5 10 5 16 9 NNW 1010,7 37 0 0,0
04.08.2020 05:00:00 13,9 12,8 13,7 17,6 19,8 19,6 9 5 19 11 N 1010,5 27 0 0,0
04.08.2020 04:00:00 14,4 12,9 14,0 17,9 19,9 19,6 13 7 22 12 N 1010,1 30 0 0,0
04.08.2020 03:00:00 15,1 14,7 15,1 18,2 20,1 19,6 4 2 14 8 N 1010,3 6 0 0,0
04.08.2020 02:00:00 15,1 14,5 14,9 18,4 20,2 19,6 6 4 10 6 N 1010,3 10 0 0,0
04.08.2020 01:00:00 15,4 14,9 15,1 18,6 20,3 19,6 8 4 10 5 N 1010,1 7 0 0,0
04.08.2020 00:00:00 15,6 15,2 15,5 18,8 20,5 19,6 4 2 8 5 NNE 1010,4 6 0 0,0
03.08.2020 23:00:00 15,8 15,4 15,8 19,0 20,6 19,6 2 1 6 3 NNW 1010,7 8 0 0,0
03.08.2020 22:00:00 15,9 15,4 15,9 19,1 20,8 19,6 4 2 9 5 N 1010,2 7 0 0,0
03.08.2020 21:00:00 15,9 15,4 16,0 19,4 21,0 19,6 7 4 14 8 NNW 1009,9 7 0 0,2
03.08.2020 20:00:00 16,0 15,5 16,2 19,7 21,1 19,6 10 5 24 13 N 1010,1 4,0 0 1,1
03.08.2020 19:00:00 16,0 15,5 16,3 20,2 21,2 19,6 9 5 16 9 NW 1009,9 3,0 0 1,7
03.08.2020 18:00:00 16,6 15,9 17,1 20,6 21,2 19,6 5 3 18 10 NW 1010,1 8 0 2,0
03.08.2020 17:00:00 16,7 16,2 16,8 21,2 21,2 19,6 10 6 17 9 NNE 1009,9 1,9 0 3,1
03.08.2020 16:00:00 17,7 15,6 19,4 21,1 21,1 19,6 13 7 19 10 N 1009,9 19 0 0,3
03.08.2020 15:00:00 17,7 16,1 18,3 20,6 21,1 19,6 8 4 17 9 NNE 1010,5 15 0 0,5
03.08.2020 14:00:00 17,3 15,9 17,6 20,3 21,1 19,6 10 6 17 9 N 1010,8 15 0 0,6
03.08.2020 13:00:00 16,7 15,7 17,4 19,8 21,2 19,6 8 4 13 7 NNW 1011,1 7 0 0,5
03.08.2020 12:00:00 15,7 15,1 16,8 19,4 21,4 19,6 7 4 13 7 NNW 1011,3 11 0 3,6
03.08.2020 11:00:00 14,9 14,5 15,5 19,3 21,7 19,6 7 4 20 11 NW 1011,4 6 0 4,0
03.08.2020 10:00:00 14,4 14,0 14,9 19,6 21,9 19,6 13 7 24 13 NNW 1011,4 5 0 2,4
03.08.2020 09:00:00 14,8 14,2 15,2 20,0 22,1 19,6 9 5 19 11 WNW 1011,4 5 0 0,1
03.08.2020 08:00:00 15,4 15,1 16,0 20,4 22,3 19,6 10 6 24 13 NW 1011,1 4,8 0 1,1
03.08.2020 07:00:00 16,9 16,5 17,3 20,7 22,5 19,6 3 2 7 4 WNW 1011,0 4,8 0 0,0
03.08.2020 06:00:00 16,6 16,3 17,1 20,8 22,7 19,6 5 3 7 4 NNW 1011,2 4,9 0 0,0
03.08.2020 05:00:00 16,7 16,4 17,0 21,0 23,0 19,5 3 1 6 3 W 1011,2 3,4 0 0,0
03.08.2020 04:00:00 16,7 16,4 17,0 21,2 23,3 19,5 4 2 8 5 NW 1011,5 4,1 0 0,0
03.08.2020 03:00:00 16,7 16,3 17,0 21,5 23,6 19,5 4 2 7 4 NE 1011,9 6 0 0,0
03.08.2020 02:00:00 16,7 16,3 17,1 21,8 23,9 19,5 6 3 10 5 WNW 1012,5 7 0 0,0
03.08.2020 01:00:00 16,8 16,4 17,0 22,0 24,3 19,5 4 2 6 3 E 1012,3 6 0 1,1
03.08.2020 00:00:00 16,8 16,3 17,2 22,5 24,7 19,5 5 3 8 4 N 1012,8 6 0 4,2
02.08.2020 23:00:00 17,0 16,6 17,4 23,3 25,1 19,5 0 0 9 5 N 1012,9 6 0 3,5
02.08.2020 22:00:00 17,1 16,6 17,5 24,4 25,5 19,5 4 2 11 6 W 1013,1 6 0 5,5
02.08.2020 21:00:00 17,2 16,3 17,4 25,7 25,8 19,5 8 4 26 14 WNW 1013,2 10 0 2,0
02.08.2020 20:00:00 19,5 15,5 20,0 27,1 25,9 19,5 14 8 31 17 W 1012,5 61 0 0,0
02.08.2020 19:00:00 24,4 11,8 24,8 28,0 26,0 19,5 11 6 22 12 NNW 1010,5 65 0 0,0
02.08.2020 18:00:00 26,0 12,5 26,8 28,8 25,9 19,5 16 8 31 17 N 1010,0 48 0 0,0
02.08.2020 17:00:00 27,1 12,6 27,7 29,6 25,7 19,5 7 4 16 8 SSE 1009,8 50 0 0,0
02.08.2020 16:00:00 27,8 11,1 29,3 30,7 25,3 19,5 11 6 18 10 SSE 1010,1 75 12 0,0
02.08.2020 15:00:00 28,4 11,9 35,0 30,5 24,8 19,5 15 8 26 14 S 1010,2 75 48 0,0
02.08.2020 14:00:00 27,9 12,4 31,5 30,0 24,2 19,5 14 8 21 11 SSE 1010,8 75 18 0,0
02.08.2020 13:00:00 28,4 10,7 35,7 29,0 23,6 19,5 8 5 20 11 S 1011,0 60 55 0,0
02.08.2020 12:00:00 27,0 10,6 33,9 26,9 23,2 19,5 11 6 23 12 S 1011,4 60 60 0,0
02.08.2020 11:00:00 25,5 11,1 31,2 24,8 23,0 19,4 16 9 26 14 SSW 1011,3 47 60 0,0
02.08.2020 10:00:00 23,0 11,1 26,5 22,9 23,0 19,4 17 9 25 13 S 1011,7 62 29 0,0
02.08.2020 09:00:00 21,3 11,5 22,6 22,1 23,1 19,4 14 8 21 12 SSW 1012,1 75 0 0,0
02.08.2020 08:00:00 17,9 12,5 18,3 21,9 23,3 19,4 7 4 11 6 SE 1012,6 63 0 0,0
02.08.2020 07:00:00 17,8 12,0 18,2 21,8 23,6 19,4 6 3 21 11 SE 1012,5 71 18 0,0
02.08.2020 06:00:00 19,2 11,0 18,6 21,8 23,9 19,4 14 7 21 12 S 1012,6 68 0 0,0
02.08.2020 05:00:00 14,8 12,0 14,7 22,0 24,2 19,4 9 5 13 7 S 1013,6 49 0 0,0
02.08.2020 04:00:00 14,8 11,3 13,4 22,4 24,6 19,4 8 4 12 7 SE 1013,8 55 0 0,0
02.08.2020 03:00:00 15,1 11,0 12,8 23,1 25,0 19,4 7 4 10 6 SSE 1014,0 50 0 0,0
02.08.2020 02:00:00 16,8 10,7 15,2 23,8 25,4 19,3 8 5 10 6 ESE 1013,8 57 0 0,0
02.08.2020 01:00:00 17,9 10,7 16,6 24,6 25,8 19,3 9 5 13 7 ESE 1014,2 58 0 0,0
02.08.2020 00:00:00 19,5 10,6 17,5 25,4 26,2 19,3 7 4 21 11 ESE 1014,3 68 0 0,0
01.08.2020 23:00:00 20,5 10,4 18,6 26,4 26,6 19,3 9 5 19 10 ESE 1014,2 62 0 0,0
01.08.2020 22:00:00 22,0 9,5 20,5 27,6 26,9 19,3 11 6 19 10 E 1014,0 51 0 0,0
01.08.2020 21:00:00 23,9 9,2 22,3 29,1 27,1 19,4 10 5 18 10 E 1013,6 58 10 0,0
01.08.2020 20:00:00 25,7 8,5 25,4 30,7 27,0 19,4 13 7 20 11 E 1013,4 65 57 0,0
01.08.2020 19:00:00 27,3 7,9 29,6 32,1 26,8 19,4 9 5 19 10 E 1013,5 54 60 0,0
01.08.2020 18:00:00 28,4 7,5 32,1 32,8 26,3 19,4 8 5 16 9 NE 1013,8 68 60 0,0
01.08.2020 17:00:00 28,9 7,1 33,7 33,0 25,7 19,3 8 4 18 10 NE 1013,8 46 60 0,0
01.08.2020 16:00:00 28,1 6,3 33,5 32,7 25,0 19,3 11 6 19 10 ESE 1014,4 60 60 0,0
01.08.2020 15:00:00 27,4 6,0 34,7 31,9 24,3 19,3 10 6 19 10 E 1014,7 67 60 0,0
01.08.2020 14:00:00 26,9 5,7 34,7 30,5 23,6 19,3 6 4 21 11 N 1015,4 55 60 0,0
01.08.2020 13:00:00 26,5 6,7 32,9 28,8 22,9 19,3 6 4 22 12 E 1015,7 63 60 0,0
01.08.2020 12:00:00 25,6 8,7 33,1 26,8 22,4 19,3 8 4 18 10 NNE 1015,8 57 60 0,0
01.08.2020 11:00:00 24,1 7,3 30,2 24,7 22,0 19,3 8 4 16 8 SE 1016,3 75 60 0,0
01.08.2020 10:00:00 22,4 8,2 27,2 22,7 21,9 19,3 8 4 12 6 ESE 1016,8 67 60 0,0
01.08.2020 09:00:00 19,8 9,3 24,2 20,9 21,9 19,3 7 4 12 6 SSE 1017,2 73 60 0,0
01.08.2020 08:00:00 16,2 9,4 19,5 19,8 22,2 19,3 5 3 9 5 SE 1017,5 47 60 0,0
01.08.2020 07:00:00 12,8 9,5 14,6 19,4 22,5 19,2 5 3 8 4 SE 1017,8 56 60 0,0
01.08.2020 06:00:00 11,0 8,9 8,8 19,8 22,9 19,2 6 3 8 4 SE 1017,9 41 10 0,0
01.08.2020 05:00:00 11,4 8,7 8,1 20,3 23,4 19,2 4 2 6 4 SSE 1018,1 45 0 0,0
01.08.2020 04:00:00 12,5 7,6 9,5 21,0 23,8 19,2 0 0 6 3 N 1018,0 58 0 0,0
01.08.2020 03:00:00 11,1 7,4 9,4 21,7 24,2 19,2 4 2 6 3 WSW 1018,2 55 0 0,0
01.08.2020 02:00:00 14,1 7,4 11,1 22,4 24,7 19,2 4 2 8 4 NNE 1018,0 70 0 0,0

tt = temperature
td = dewpoint
tt 5cm = temperature 5cm
tt -5cm = temperature -5cm
tt -20cm = temperature -20cm
tt -100cm = temperature -100cm
ff = wind speed
fx = gusts
dd = wind direction
ppp = reduced air pressure
vv = visibility
sd = sunshine duration
rr = precipitation

Next stations